����������;��������(kWh)
2016-11-28 00:00;100,5
2016-11-28 00:15;98,15
2016-11-28 00:30;98,45
2016-11-28 00:45;97,8
2016-11-28 01:00;99,15
2016-11-28 01:15;99,75
2016-11-28 01:30;102,5
2016-11-28 01:45;101,9
2016-11-28 02:00;103,05
2016-11-28 02:15;104,05
2016-11-28 02:30;99,75
2016-11-28 02:45;95,5
2016-11-28 03:00;95,35
2016-11-28 03:15;95,75
2016-11-28 03:30;97,45
2016-11-28 03:45;96,65
2016-11-28 04:00;95,75
2016-11-28 04:15;95,1
2016-11-28 04:30;94,05
2016-11-28 04:45;95,85
2016-11-28 05:00;95,65
2016-11-28 05:15;97,6
2016-11-28 05:30;107,9
2016-11-28 05:45;113,45
2016-11-28 06:00;116,75
2016-11-28 06:15;113
2016-11-28 06:30;110,95
2016-11-28 06:45;106,35
2016-11-28 07:00;113,35
2016-11-28 07:15;107,75
2016-11-28 07:30;108,15
2016-11-28 07:45;119,5
2016-11-28 08:00;137,8
2016-11-28 08:15;140,1
2016-11-28 08:30;129,95
2016-11-28 08:45;140,45
2016-11-28 09:00;142,6
2016-11-28 09:15;162,35
2016-11-28 09:30;159,8
2016-11-28 09:45;166,2
2016-11-28 10:00;164,4
2016-11-28 10:15;160,3
2016-11-28 10:30;165,15
2016-11-28 10:45;172,25
2016-11-28 11:00;171,8
2016-11-28 11:15;168,8
2016-11-28 11:30;173,65
2016-11-28 11:45;179,7
2016-11-28 12:00;179,45
2016-11-28 12:15;190,9
2016-11-28 12:30;188,75
2016-11-28 12:45;187,65
2016-11-28 13:00;183,2
2016-11-28 13:15;191,95
2016-11-28 13:30;183,6
2016-11-28 13:45;174,1
2016-11-28 14:00;171
2016-11-28 14:15;180,95
2016-11-28 14:30;170,05
2016-11-28 14:45;168,5
2016-11-28 15:00;174,1
2016-11-28 15:15;163,05
2016-11-28 15:30;156,85
2016-11-28 15:45;158
2016-11-28 16:00;153,75
2016-11-28 16:15;147,7
2016-11-28 16:30;153,4
2016-11-28 16:45;152,6
2016-11-28 17:00;139,85
2016-11-28 17:15;147,1
2016-11-28 17:30;151,3
2016-11-28 17:45;146,05
2016-11-28 18:00;144,3
2016-11-28 18:15;148,35
2016-11-28 18:30;145,25
2016-11-28 18:45;148,9
2016-11-28 19:00;139,85
2016-11-28 19:15;138,5
2016-11-28 19:30;137,25
2016-11-28 19:45;131,15
2016-11-28 20:00;128,45
2016-11-28 20:15;126,9
2016-11-28 20:30;128,95
2016-11-28 20:45;128,7
2016-11-28 21:00;126,45
2016-11-28 21:15;124,4
2016-11-28 21:30;119,35
2016-11-28 21:45;115,1
2016-11-28 22:00;106,05
2016-11-28 22:15;107,2
2016-11-28 22:30;107,85
2016-11-28 22:45;101,4
2016-11-28 23:00;99,1
2016-11-28 23:15;98,15
2016-11-28 23:30;94
2016-11-28 23:45;90,95
2016-11-29 00:00;91,3
2016-11-29 00:15;96,65
2016-11-29 00:30;92,05
2016-11-29 00:45;88,75
2016-11-29 01:00;85,2
2016-11-29 01:15;85,35
2016-11-29 01:30;85,15
2016-11-29 01:45;84,45
2016-11-29 02:00;84,5
2016-11-29 02:15;59,9
2016-11-29 02:30;81,45
2016-11-29 02:45;84,15
2016-11-29 03:00;82,8
2016-11-29 03:15;81,95
2016-11-29 03:30;89,15
2016-11-29 03:45;87,9
2016-11-29 04:00;88,65
2016-11-29 04:15;89,3
2016-11-29 04:30;89,05
2016-11-29 04:45;84,15
2016-11-29 05:00;83,05
2016-11-29 05:15;85,65
2016-11-29 05:30;85,7
2016-11-29 05:45;86,05
2016-11-29 06:00;88,75
2016-11-29 06:15;92,45
2016-11-29 06:30;92,8
2016-11-29 06:45;92,45
2016-11-29 07:00;90,6
2016-11-29 07:15;90,1
2016-11-29 07:30;93,8
2016-11-29 07:45;94,75
2016-11-29 08:00;96,3
2016-11-29 08:15;113,3
2016-11-29 08:30;126,85
2016-11-29 08:45;121,75
2016-11-29 09:00;125,4
2016-11-29 09:15;126,25
2016-11-29 09:30;135,25
2016-11-29 09:45;137,3
2016-11-29 10:00;145,5
2016-11-29 10:15;144
2016-11-29 10:30;149,15
2016-11-29 10:45;149,95
2016-11-29 11:00;155,75
2016-11-29 11:15;167,95
2016-11-29 11:30;168,85
2016-11-29 11:45;173,9
2016-11-29 12:00;177,65
2016-11-29 12:15;181,95
2016-11-29 12:30;192,9
2016-11-29 12:45;188,3
2016-11-29 13:00;181,9
2016-11-29 13:15;185,85
2016-11-29 13:30;189,8
2016-11-29 13:45;187,45
2016-11-29 14:00;183,85
2016-11-29 14:15;176,5
2016-11-29 14:30;171,2
2016-11-29 14:45;170,8
2016-11-29 15:00;172,25
2016-11-29 15:15;171,45
2016-11-29 15:30;167,8
2016-11-29 15:45;169,1
2016-11-29 16:00;168,8
2016-11-29 16:15;169,2
2016-11-29 16:30;163,2
2016-11-29 16:45;167,4
2016-11-29 17:00;166,15
2016-11-29 17:15;159,8
2016-11-29 17:30;162,55
2016-11-29 17:45;160,9
2016-11-29 18:00;157,95
2016-11-29 18:15;155,75
2016-11-29 18:30;152
2016-11-29 18:45;151,4
2016-11-29 19:00;148,1
2016-11-29 19:15;145,85
2016-11-29 19:30;142,55
2016-11-29 19:45;137,1
2016-11-29 20:00;129,75
2016-11-29 20:15;123
2016-11-29 20:30;122,3
2016-11-29 20:45;118,95
2016-11-29 21:00;117,4
2016-11-29 21:15;115,5
2016-11-29 21:30;111
2016-11-29 21:45;113,15
2016-11-29 22:00;104,25
2016-11-29 22:15;102,85
2016-11-29 22:30;101,35
2016-11-29 22:45;98,5
2016-11-29 23:00;101,5
2016-11-29 23:15;98
2016-11-29 23:30;97,9
2016-11-29 23:45;96,15
2016-11-30 00:00;97,75
2016-11-30 00:15;95,5
2016-11-30 00:30;94,4
2016-11-30 00:45;94
2016-11-30 01:00;95,7
2016-11-30 01:15;94,5
2016-11-30 01:30;95,6
2016-11-30 01:45;96,7
2016-11-30 02:00;91,6
2016-11-30 02:15;88,8
2016-11-30 02:30;87,85
2016-11-30 02:45;87,2
2016-11-30 03:00;87,6
2016-11-30 03:15;88,3
2016-11-30 03:30;89
2016-11-30 03:45;87,35
2016-11-30 04:00;87,7
2016-11-30 04:15;87,3
2016-11-30 04:30;85,55
2016-11-30 04:45;86,95
2016-11-30 05:00;85,3
2016-11-30 05:15;89,35
2016-11-30 05:30;103,1
2016-11-30 05:45;109,55
2016-11-30 06:00;106,05
2016-11-30 06:15;99,05
2016-11-30 06:30;100,95
2016-11-30 06:45;102,95
2016-11-30 07:00;103
2016-11-30 07:15;99,15
2016-11-30 07:30;105,05
2016-11-30 07:45;111,85
2016-11-30 08:00;116,35
2016-11-30 08:15;120,35
2016-11-30 08:30;129,85
2016-11-30 08:45;172,55
2016-11-30 09:00;198,6
2016-11-30 09:15;175,7
2016-11-30 09:30;196,1
2016-11-30 09:45;190,9
2016-11-30 10:00;199,35
2016-11-30 10:15;205,7
2016-11-30 10:30;213,5
2016-11-30 10:45;218,75
2016-11-30 11:00;219,55
2016-11-30 11:15;229,15
2016-11-30 11:30;232,45
2016-11-30 11:45;229,05
2016-11-30 12:00;239,25
2016-11-30 12:15;248,8
2016-11-30 12:30;270,6
2016-11-30 12:45;257,4
2016-11-30 13:00;256,6
2016-11-30 13:15;256,5
2016-11-30 13:30;249,4
2016-11-30 13:45;239,9
2016-11-30 14:00;237,2
2016-11-30 14:15;233,45
2016-11-30 14:30;250,1
2016-11-30 14:45;244,65
2016-11-30 15:00;241,3
2016-11-30 15:15;229,2
2016-11-30 15:30;231,6
2016-11-30 15:45;225,75
2016-11-30 16:00;233,75
2016-11-30 16:15;223,2
2016-11-30 16:30;212,3
2016-11-30 16:45;220,4
2016-11-30 17:00;211,65
2016-11-30 17:15;213,55
2016-11-30 17:30;211,5
2016-11-30 17:45;206,55
2016-11-30 18:00;211,45
2016-11-30 18:15;190,25
2016-11-30 18:30;180,9
2016-11-30 18:45;186,15
2016-11-30 19:00;169,7
2016-11-30 19:15;167,85
2016-11-30 19:30;162,1
2016-11-30 19:45;162,15
2016-11-30 20:00;151,4
2016-11-30 20:15;146,9
2016-11-30 20:30;151,55
2016-11-30 20:45;147,25
2016-11-30 21:00;143,6
2016-11-30 21:15;140,85
2016-11-30 21:30;135,55
2016-11-30 21:45;124,6
2016-11-30 22:00;117,6
2016-11-30 22:15;122,2
2016-11-30 22:30;121,65
2016-11-30 22:45;115,4
2016-11-30 23:00;116,75
2016-11-30 23:15;110,15
2016-11-30 23:30;110,05
2016-11-30 23:45;108,35
2016-12-01 00:00;107
2016-12-01 00:15;106,85
2016-12-01 00:30;106,4
2016-12-01 00:45;106,5
2016-12-01 01:00;106
2016-12-01 01:15;106,4
2016-12-01 01:30;106,35
2016-12-01 01:45;104,6
2016-12-01 02:00;104,35
2016-12-01 02:15;103,05
2016-12-01 02:30;102,4
2016-12-01 02:45;102,5
2016-12-01 03:00;101,8
2016-12-01 03:15;101,6
2016-12-01 03:30;101,85
2016-12-01 03:45;101,6
2016-12-01 04:00;102,85
2016-12-01 04:15;111,6
2016-12-01 04:30;112,8
2016-12-01 04:45;114,6
2016-12-01 05:00;114,65
2016-12-01 05:15;116,5
2016-12-01 05:30;117,4
2016-12-01 05:45;114,8
2016-12-01 06:00;131,5
2016-12-01 06:15;136,95
2016-12-01 06:30;137
2016-12-01 06:45;133,3
2016-12-01 07:00;134,35
2016-12-01 07:15;129,05
2016-12-01 07:30;132,55
2016-12-01 07:45;192
2016-12-01 08:00;161,15
2016-12-01 08:15;159,65
2016-12-01 08:30;167,05
2016-12-01 08:45;181,95
2016-12-01 09:00;202,4
2016-12-01 09:15;227,8
2016-12-01 09:30;250,3
2016-12-01 09:45;254,15
2016-12-01 10:00;269,7
2016-12-01 10:15;269,7
2016-12-01 10:30;268,05
2016-12-01 10:45;282,25
2016-12-01 11:00;250,25
2016-12-01 11:15;241,55
2016-12-01 11:30;255,3
2016-12-01 11:45;219,35
2016-12-01 12:00;262,05
2016-12-01 12:15;260,95
2016-12-01 12:30;315,65
2016-12-01 12:45;285,55
2016-12-01 13:00;271,05
2016-12-01 13:15;280,1
2016-12-01 13:30;272,05
2016-12-01 13:45;272,6
2016-12-01 14:00;264,45
2016-12-01 14:15;268,35
2016-12-01 14:30;257,9
2016-12-01 14:45;263,4
2016-12-01 15:00;250,85
2016-12-01 15:15;257,3
2016-12-01 15:30;239,95
2016-12-01 15:45;237,95
2016-12-01 16:00;228,1
2016-12-01 16:15;236,45
2016-12-01 16:30;220,1
2016-12-01 16:45;213,85
2016-12-01 17:00;201,35
2016-12-01 17:15;205,9
2016-12-01 17:30;203,1
2016-12-01 17:45;203,55
2016-12-01 18:00;191,65
2016-12-01 18:15;190
2016-12-01 18:30;173,2
2016-12-01 18:45;171,7
2016-12-01 19:00;174,2
2016-12-01 19:15;164,75
2016-12-01 19:30;156,6
2016-12-01 19:45;153,9
2016-12-01 20:00;156,5
2016-12-01 20:15;151,15
2016-12-01 20:30;139,9
2016-12-01 20:45;136,4
2016-12-01 21:00;135,95
2016-12-01 21:15;130,3
2016-12-01 21:30;124
2016-12-01 21:45;118,05
2016-12-01 22:00;118,25
2016-12-01 22:15;120,65
2016-12-01 22:30;118,6
2016-12-01 22:45;116,7
2016-12-01 23:00;113,85
2016-12-01 23:15;105,75
2016-12-01 23:30;102,75
2016-12-01 23:45;100,6
2016-12-02 00:00;99,35
2016-12-02 00:15;98,3
2016-12-02 00:30;99,15
2016-12-02 00:45;97,6
2016-12-02 01:00;96,9
2016-12-02 01:15;97
2016-12-02 01:30;96,45
2016-12-02 01:45;96,5
2016-12-02 02:00;94,6
2016-12-02 02:15;94
2016-12-02 02:30;92,7
2016-12-02 02:45;93,8
2016-12-02 03:00;99,3
2016-12-02 03:15;100,15
2016-12-02 03:30;98,95
2016-12-02 03:45;98,55
2016-12-02 04:00;98,55
2016-12-02 04:15;103,7
2016-12-02 04:30;112,1
2016-12-02 04:45;112,7
2016-12-02 05:00;113,75
2016-12-02 05:15;118,2
2016-12-02 05:30;111,55
2016-12-02 05:45;109,75
2016-12-02 06:00;120,05
2016-12-02 06:15;125,05
2016-12-02 06:30;123,9
2016-12-02 06:45;119,15
2016-12-02 07:00;117,6
2016-12-02 07:15;112,8
2016-12-02 07:30;121,35
2016-12-02 07:45;128,3
2016-12-02 08:00;127,3
2016-12-02 08:15;129,25
2016-12-02 08:30;138,9
2016-12-02 08:45;162,75
2016-12-02 09:00;163,55
2016-12-02 09:15;220,7
2016-12-02 09:30;175
2016-12-02 09:45;186,6
2016-12-02 10:00;185,6
2016-12-02 10:15;182,9
2016-12-02 10:30;193,4
2016-12-02 10:45;195,8
2016-12-02 11:00;197,65
2016-12-02 11:15;200,35
2016-12-02 11:30;199
2016-12-02 11:45;199,6
2016-12-02 12:00;193,95
2016-12-02 12:15;198,25
2016-12-02 12:30;198,95
2016-12-02 12:45;202,65
2016-12-02 13:00;206,95
2016-12-02 13:15;206,05
2016-12-02 13:30;200,25
2016-12-02 13:45;212,55
2016-12-02 14:00;190,9
2016-12-02 14:15;193,8
2016-12-02 14:30;186,3
2016-12-02 14:45;184,6
2016-12-02 15:00;182,2
2016-12-02 15:15;185,1
2016-12-02 15:30;172,4
2016-12-02 15:45;181,7
2016-12-02 16:00;166,8
2016-12-02 16:15;171,55
2016-12-02 16:30;165,45
2016-12-02 16:45;165,3
2016-12-02 17:00;157,4
2016-12-02 17:15;149,8
2016-12-02 17:30;171,6
2016-12-02 17:45;164,65
2016-12-02 18:00;169,2
2016-12-02 18:15;159,9
2016-12-02 18:30;154,6
2016-12-02 18:45;158,5
2016-12-02 19:00;159,6
2016-12-02 19:15;154,7
2016-12-02 19:30;155,2
2016-12-02 19:45;151
2016-12-02 20:00;148,85
2016-12-02 20:15;143,95
2016-12-02 20:30;137,7
2016-12-02 20:45;130,6
2016-12-02 21:00;125,55
2016-12-02 21:15;122,15
2016-12-02 21:30;122,4
2016-12-02 21:45;119,85
2016-12-02 22:00;113,9
2016-12-02 22:15;114,9
2016-12-02 22:30;117,4
2016-12-02 22:45;109,9
2016-12-02 23:00;113,5
2016-12-02 23:15;107,25
2016-12-02 23:30;102,95
2016-12-02 23:45;98,5
2016-12-03 00:00;98,1
2016-12-03 00:15;97,3
2016-12-03 00:30;96,3
2016-12-03 00:45;96,9
2016-12-03 01:00;98,05
2016-12-03 01:15;97,55
2016-12-03 01:30;96,6
2016-12-03 01:45;95,7
2016-12-03 02:00;95,65
2016-12-03 02:15;95,8
2016-12-03 02:30;95,05
2016-12-03 02:45;95,15
2016-12-03 03:00;94,1
2016-12-03 03:15;95,15
2016-12-03 03:30;95,55
2016-12-03 03:45;95,95
2016-12-03 04:00;95,9
2016-12-03 04:15;95,85
2016-12-03 04:30;96,45
2016-12-03 04:45;101,5
2016-12-03 05:00;101
2016-12-03 05:15;101,7
2016-12-03 05:30;100,25
2016-12-03 05:45;105,55
2016-12-03 06:00;103,65
2016-12-03 06:15;108,7
2016-12-03 06:30;108,45
2016-12-03 06:45;101,2
2016-12-03 07:00;103,15
2016-12-03 07:15;99,05
2016-12-03 07:30;99,7
2016-12-03 07:45;101,55
2016-12-03 08:00;100,1
2016-12-03 08:15;99,25
2016-12-03 08:30;101,6
2016-12-03 08:45;103,7
2016-12-03 09:00;102,85
2016-12-03 09:15;96,3
2016-12-03 09:30;88,6
2016-12-03 09:45;88,4
2016-12-03 10:00;87,95
2016-12-03 10:15;86,7
2016-12-03 10:30;85,75
2016-12-03 10:45;127,05
2016-12-03 11:00;96,4
2016-12-03 11:15;99,6
2016-12-03 11:30;95,85
2016-12-03 11:45;98,8
2016-12-03 12:00;98,95
2016-12-03 12:15;101,6
2016-12-03 12:30;102
2016-12-03 12:45;103,4
2016-12-03 13:00;107,35
2016-12-03 13:15;102,3
2016-12-03 13:30;108,05
2016-12-03 13:45;104,15
2016-12-03 14:00;102,85
2016-12-03 14:15;103,55
2016-12-03 14:30;99,2
2016-12-03 14:45;97,65
2016-12-03 15:00;96,1
2016-12-03 15:15;98,85
2016-12-03 15:30;98,65
2016-12-03 15:45;100,95
2016-12-03 16:00;101,2
2016-12-03 16:15;103,45
2016-12-03 16:30;102,6
2016-12-03 16:45;101,75
2016-12-03 17:00;101,45
2016-12-03 17:15;103,3
2016-12-03 17:30;106,1
2016-12-03 17:45;112,55
2016-12-03 18:00;112,65
2016-12-03 18:15;115
2016-12-03 18:30;113,9
2016-12-03 18:45;119,15
2016-12-03 19:00;117,5
2016-12-03 19:15;116,65
2016-12-03 19:30;116,45
2016-12-03 19:45;116,85
2016-12-03 20:00;115,8
2016-12-03 20:15;114,9
2016-12-03 20:30;112
2016-12-03 20:45;109,7
2016-12-03 21:00;109,05
2016-12-03 21:15;110,6
2016-12-03 21:30;109,85
2016-12-03 21:45;111,4
2016-12-03 22:00;110,65
2016-12-03 22:15;116,9
2016-12-03 22:30;115,45
2016-12-03 22:45;111,25
2016-12-03 23:00;114,15
2016-12-03 23:15;103,55
2016-12-03 23:30;102,4
2016-12-03 23:45;104,15
2016-12-04 00:00;103
2016-12-04 00:15;102,25
2016-12-04 00:30;101,7
2016-12-04 00:45;97,9
2016-12-04 01:00;95,25
2016-12-04 01:15;94,35
2016-12-04 01:30;94,4
2016-12-04 01:45;92,75
2016-12-04 02:00;93,75
2016-12-04 02:15;90,95
2016-12-04 02:30;93
2016-12-04 02:45;92,6
2016-12-04 03:00;94,4
2016-12-04 03:15;93,35
2016-12-04 03:30;94,3
2016-12-04 03:45;92,7
2016-12-04 04:00;92,05
2016-12-04 04:15;91,4
2016-12-04 04:30;91,75
2016-12-04 04:45;92,85
2016-12-04 05:00;93,4
2016-12-04 05:15;91,95
2016-12-04 05:30;92,35
2016-12-04 05:45;94,7
2016-12-04 06:00;93,75
2016-12-04 06:15;98,85
2016-12-04 06:30;101,5
2016-12-04 06:45;101,55
2016-12-04 07:00;101,35
2016-12-04 07:15;97,05
2016-12-04 07:30;98,3
2016-12-04 07:45;93,85
2016-12-04 08:00;89,15
2016-12-04 08:15;85,3
2016-12-04 08:30;85,75
2016-12-04 08:45;88,05
2016-12-04 09:00;90,7
2016-12-04 09:15;93,4
2016-12-04 09:30;93,95
2016-12-04 09:45;94,55
2016-12-04 10:00;88,25
2016-12-04 10:15;86,9
2016-12-04 10:30;87,9
2016-12-04 10:45;92,2
2016-12-04 11:00;89,85
2016-12-04 11:15;91,85
2016-12-04 11:30;89,5
2016-12-04 11:45;89,25
2016-12-04 12:00;88,65
2016-12-04 12:15;89,8
2016-12-04 12:30;98,6
2016-12-04 12:45;98,55
2016-12-04 13:00;99,15
2016-12-04 13:15;97,65
2016-12-04 13:30;98,5
2016-12-04 13:45;105,4
2016-12-04 14:00;96,25
2016-12-04 14:15;95,4
2016-12-04 14:30;92,3
2016-12-04 14:45;92,7
2016-12-04 15:00;94,9
2016-12-04 15:15;96,7
2016-12-04 15:30;93,55
2016-12-04 15:45;97,5
2016-12-04 16:00;97,15
2016-12-04 16:15;94,65
2016-12-04 16:30;96,95
2016-12-04 16:45;95,5
2016-12-04 17:00;90,65
2016-12-04 17:15;90,7
2016-12-04 17:30;95,8
2016-12-04 17:45;102,25
2016-12-04 18:00;105,6
2016-12-04 18:15;108,05
2016-12-04 18:30;109,05
2016-12-04 18:45;112,15
2016-12-04 19:00;110,05
2016-12-04 19:15;110,1
2016-12-04 19:30;111,75
2016-12-04 19:45;102,95
2016-12-04 20:00;106,2
2016-12-04 20:15;104,6
2016-12-04 20:30;100,35
2016-12-04 20:45;103,7
2016-12-04 21:00;106,95
2016-12-04 21:15;106,6
2016-12-04 21:30;107,4
2016-12-04 21:45;103,75
2016-12-04 22:00;99,55
2016-12-04 22:15;105,8
2016-12-04 22:30;102
2016-12-04 22:45;99,6
2016-12-04 23:00;102,05
2016-12-04 23:15;95,25
2016-12-04 23:30;92,75
2016-12-04 23:45;91,05

